Regional Weather Roundup
Issued by NWS Albany, NY

Home | Current Version | Previous Version | Graphics & Text | Print | Product List | Glossary On
Versions: 1 2 3 4 5 6 7 8 9 10 11 12 13 14 15 16 17 18 19 20 21 22 23 24 25 26 27 28 29 30 31 32 33 34 35 36 37 38 39 40 41 42 43 44 45 46 47 48 49 50
000
ASUS41 KALY 120410
RWRALY

NEW YORK STATE HOURLY WEATHER ROUNDUP
NATIONAL WEATHER SERVICE ALBANY NY
1200 AM EDT SAT JUL 12 2014

NOTE: "FAIR" INDICATES FEW OR NO CLOUDS BELOW 12,000 FEET WITH NO
SIGNIFICANT WEATHER AND/OR NO OBSTRUCTIONS TO VISIBILITY.

NYZ032-033-038>043-046>054-057>066-NYZ062>081-120500-
EAST


CITY           SKY/WX    TMP DP  RH WIND       PRES   REMARKS
ALBANY         CLEAR     64  57  78 CALM      30.22R
GLENS FALLS    CLEAR     59  58  96 CALM      30.21R
POUGHKEEPSIE   CLEAR     67  62  84 CALM      30.21R
NEWBURGH       CLEAR     68  63  83 CALM      30.24R
MONTGOMERY     CLEAR     64  62  93 CALM      30.22R
WHITE PLAINS   CLEAR     67  61  81 CALM      30.23R
ISLIP          CLEAR     70  61  73 CALM      30.21R
NEW YORK CITY  PTCLDY    72  63  73 S5        30.22R
CENTRAL PARK   CLEAR     72  61  68 W5        30.25R
$$

NYZ005>009-017-018-044>046-055-056-120500-
CENTRAL


CITY           SKY/WX    TMP DP  RH WIND       PRES   REMARKS
FULTON         PTCLDY    60  55  83 CALM      30.20S
SYRACUSE       PTCLDY    65  57  75 E5        30.20F
ROME           CLEAR     60  55  83 E3        30.23S
ELMIRA         PTCLDY    63  59  87 CALM      30.21S
BINGHAMTON     PTCLDY    67  57  70 SE5       30.25S
$$

NYZ026>034-041>043-120500-
NORTH


CITY           SKY/WX    TMP DP  RH WIND       PRES   REMARKS
WATERTOWN      PTCLDY    55  50  83 NE3       30.20S
FORT DRUM      NOT AVBL
MASSENA        CLEAR     55  54  96 CALM      30.20S FOG
SARANAC LAKE   CLEAR     48  47  96 CALM      30.24S
PLATTSBURGH    CLEAR     57  55  93 CALM      30.20R
$$

NYZ001>004-010>016-019>021-120500-
WEST


CITY           SKY/WX    TMP DP  RH WIND       PRES   REMARKS
NIAGARA FALLS  PTCLDY    64  54  69 E6        30.19S
BUFFALO        PTCLDY    66  56  70 NE5       30.20S
DUNKIRK        CLEAR     60  56  86 CALM      30.20S
JAMESTOWN      CLEAR     66  50  55 E3        30.24S
WELLSVILLE     PTCLDY    65  59  81 CALM      30.27S
ROCHESTER      PTCLDY    68  52  56 NE3       30.20S
PENN YAN       PTCLDY    62  58  86 CALM      30.22S
$$

             KEY
       WCI = WIND CHILL INDEX
       VSB = VISIBILITY
       HX  = HEAT INDEX
$$


USA.gov is the U.S. government's official web portal to all federal, state and local government web resources and services.